McFarland, CA (93250)

8:50 PM PST on February 11, 2016 (GMT -0800)
McFarland | | Change Station
CLOSE
Current Station
Personal Weather Station
Location: McFarland, CA
Elevation: 342 ft
Nearby Weather Stations

Elev 342 ft 35.69 °N, 119.23 °W | Updated 8 seconds ago

Clear
Clear
56.8 °F
Feels Like 56.8 °F
N
2.2
Wind Variable Wind from ESE

Today
High -- | Low -- °F
--% Chance of Precip.
Yesterday
High -- | Low -- °F
Precip. -- in
Pressure 30.14 in
Visibility 5.0 miles
Clouds Clear
Dew Point 54 °F
Humidity 89%
Rainfall 0.00 in
Snow Depth Not available.
6:48 AM 5:34 PM
Waxing Crescent, 17% visible
METAR KBFL 120354Z 09004KT 5SM HZ CLR 16/10 A3014 RMK AO2 SLP205 T01610100
Pressure 30.14 in
Visibility 5.0 miles
Clouds Clear
Dew Point 54 °F
Humidity 89%
Rainfall 0.00 in
Snow Depth Not available.
6:48 AM 5:34 PM
Waxing Crescent, 17% visible
METAR KBFL 120354Z 09004KT 5SM HZ CLR 16/10 A3014 RMK AO2 SLP205 T01610100

10-Day Weather Forecast

Almanac

Astronomy

Feb. 11, 2016 Rise Set
Actual Time
Civil Twilight
Nautical Twilight
Astronomical Twilight
Moon
Length of Visible Light
Length of Day
Tomorrow will be .
, % of the Moon is Illuminated

Today's Extremes

State Highs State Lows

Community

WunderPhotos

Upload Photos

1,892,268 photos uploaded!

WunderBlog® & News

Nearby

Air Quality

  Air Quality AQ Index Pollutant
Not available.

Snow Depth

Station Depth Elevation

Earthquake Activity

City Distance Mag. Time & Date
Minimum magnitude displayed is 2.5.

Coastal Water Temperatures

Place Temperature

Stations

Nearby Weather Stations

Station Location Temp. Windchill Dew Point Humidity Wind Precip. Elev Updated Type
                   

Watches & Warnings

There are currently no watches in effect.